{"data":{"norad_id":54742,"intl_designator":"2022-170B","name":"GALAXY 36 (G-36)","alt_names":[],"object_type":"PAYLOAD","status":"ACTIVE","operator":null,"country":"ITSO","launch_date":"2022-12-13","launch_site_code":"FRGUI","launch_vehicle":null,"mission":null,"orbit_class":"UNKNOWN","rcs_meters":null,"size_class":null,"mass_kg":null,"dimensions":null,"purposes":["comms"],"wikipedia_slug":null,"has_3d_model":false,"image_url":null,"decayed_at":null,"tle_current":{"epoch":"2026-05-25T03:26:38.623776Z","epoch_age_seconds":62668,"freshness":"FRESH","line1":"1 54742U 22170B   26145.14350259 -.00000187  00000+0  00000+0 0  9996","line2":"2 54742   0.0128 262.8762 0002749 169.2250 133.2915  1.00271960 12547","mean_motion":1.0027196,"eccentricity":0.0002749,"inclination_deg":0.0128,"raan_deg":262.8762,"arg_perigee_deg":169.225,"mean_anomaly_deg":133.2915,"bstar":0,"rev_number":1254,"period_min":1436.0943976761,"perigee_km":35774.954831079,"apogee_km":35798.136973739,"semimajor_km":42164.682902409,"source":"CELESTRAK","updated_at":"2026-05-25T13:38:14.339878Z"}}}